This is the latest recevied weather packets stored in our database for station/object KJ6HT. If no packets are shown the sender has not sent any weather packets the latest 10 day(s).
| Time | Temp. | Humidity | Pressure | Rain* | Wind** | Luminosity | Snow |
|---|---|---|---|---|---|---|---|
| 1788145267 | 80° F | 65% | 756.1 mmHg | 0 in | - | - | - |
| 1788144336 | 80° F | 64% | 756.1 mmHg | 0 in | - | - | - |
| 1788143403 | 81° F | 61% | 756 mmHg | 0 in | - | - | - |
| 1788142551 | 83° F | 58% | 755.8 mmHg | 0 in | - | - | - |
| 1788141614 | 84° F | 55% | 755.8 mmHg | 0 in | - | - | - |
| 1788140783 | 85° F | 53% | 755.8 mmHg | 0 in | - | - | - |
| 1788139809 | 86° F | 51% | 755.8 mmHg | 0 in | - | - | - |
| 1788138963 | 87° F | 50% | 755.8 mmHg | 0 in | - | - | - |
| 1788138058 | 89° F | 47% | 755.7 mmHg | 0 in | - | - | - |
| 1788137115 | 90° F | 46% | 755.8 mmHg | 0 in | - | - | - |
| 1788136278 | 90° F | 46% | 755.7 mmHg | 0 in | - | - | - |
| 1788135331 | 91° F | 45% | 755.7 mmHg | 0 in | - | - | - |
| 1788134417 | 91° F | 46% | 755.6 mmHg | 0 in | - | - | - |
| 1788133573 | 91° F | 47% | 755.7 mmHg | 0 in | - | - | - |
| 1788132621 | 92° F | 45% | 755.6 mmHg | 0 in | - | - | - |
| 1788131774 | 92° F | 46% | 755.5 mmHg | 0 in | - | - | - |
| 1788130821 | 92° F | 46% | 755.7 mmHg | 0 in | - | - | - |
| 1788129051 | 93° F | 48% | 755.9 mmHg | 0 in | - | - | - |
| 1788128118 | 93° F | 48% | 756.1 mmHg | 0 in | - | - | - |
| 1788127255 | 94° F | 48% | 756.1 mmHg | 0 in | - | - | - |
| 1788126323 | 94° F | 46% | 756.3 mmHg | 0 in | - | - | - |
| 1788125480 | 95° F | 45% | 756.4 mmHg | 0 in | - | - | - |
| 1788124548 | 95° F | 43% | 756.5 mmHg | 0 in | - | - | - |
| 1788123612 | 95° F | 41% | 756.5 mmHg | 0 in | - | - | - |
| 1788122765 | 95° F | 42% | 756.6 mmHg | 0 in | - | - | - |
* Rain latest hour (hover to see other rain measurements)
** Current wind speed in m/s (hover to see current wind gust speed)